Greenville, AL

5:42 PM CST on February 10, 2016 (GMT -0600)
Greenville Municipal

Weather History for KPRN - February, 2012

Change the Weather History Date:

Wednesday, February 29, 2012

  Actual Average Record
Temperature  
Mean Temperature 68 °F -  
Max Temperature 75 °F - 78 °F (1948)
Min Temperature 62 °F - 28 °F (1984)
Cooling Degree Days 4    
Growing Degree Days 18 (Base 50)    
Moisture  
Dew Point 64 °F    
Average Humidity 85    
Maximum Humidity 96    
Minimum Humidity 64    
Precipitation  
Precipitation 0.01 in - - ()
Sea Level Pressure  
Sea Level Pressure 30.08 in    
Wind  
Wind Speed 9 mph (South)    
Max Wind Speed 17 mph    
Max Gust Speed 26 mph    
Visibility 10 miles    
Events Rain , Hail    
Averages and records for this station are not official NWS values.
T = Trace of Precipitation, MM = Missing Value Source: NWS Daily Summary

Daily Weather History Graph

Daily Weather History Graph

Search for Another Location

Airport or City:

Trip Planner

Search our weather history database for the weather conditions in past years. The results will help you decide how hot, cold, wet, or windy it might be!

Date:

Astronomy

Feb. 29, 2012 Rise Set
Actual Time 6:14 AM CST 5:43 PM CST
Civil Twilight 5:49 AM CST 6:08 PM CST
Nautical Twilight 5:21 AM CST 6:36 PM CST
Astronomical Twilight 4:53 AM CST 7:05 PM CST
Moon 10:32 AM CST (2/29) 12:03 AM CST (2/29)
Length of Visible Light 12h 18m
Length of Day
11h 29m
Waxing Crescent, 47% of the Moon is Illuminated
Feb 29
Waxing Crescent
Feb 29
First Quarter
Mar 8
Full
Mar 14
Last Quarter
Mar 22
New

Hourly Weather History & Observations

Time (CST) Temp. Dew Point Humidity Pressure Visibility Wind Dir Wind Speed Gust Speed Precip Events Conditions
12:56 AM 64.9 °F 62.1 °F 90% 30.17 in 10.0 mi South 8.1 mph - N/A   Overcast
1:40 AM 63.0 °F 61.0 °F 93% 30.18 in 10.0 mi South 9.2 mph 17.3 mph N/A   Overcast
1:56 AM 63.0 °F 61.0 °F 93% 30.17 in 10.0 mi South 8.1 mph - N/A   Overcast
2:56 AM 63.0 °F 61.0 °F 93% 30.19 in 6.0 mi SSW 8.1 mph - N/A   Overcast
3:30 AM - - N/A% - - North - - N/A Hail Hail
3:56 AM 62.1 °F 61.0 °F 96% 30.17 in 8.0 mi SSE 5.8 mph - 0.00 in   Overcast
4:05 AM 62.1 °F 61.0 °F 96% 30.17 in 10.0 mi SSE 4.6 mph - N/A   Overcast
4:11 AM 62.1 °F 61.0 °F 96% 30.17 in 10.0 mi SSE 4.6 mph - N/A   Overcast
4:56 AM 62.1 °F 61.0 °F 96% 30.16 in 10.0 mi South 6.9 mph - N/A   Overcast
5:56 AM 62.1 °F 61.0 °F 96% 30.13 in 10.0 mi SE 8.1 mph - N/A   Overcast
6:56 AM 62.1 °F 61.0 °F 96% 30.13 in 10.0 mi SSE 8.1 mph - N/A   Overcast
7:56 AM 64.0 °F 62.1 °F 93% 30.15 in 10.0 mi South 8.1 mph - N/A   Overcast
8:48 AM 68.0 °F 62.1 °F 81% 30.14 in 10.0 mi South 9.2 mph 19.6 mph N/A   Mostly Cloudy
8:56 AM 69.1 °F 62.1 °F 78% 30.13 in 10.0 mi South 10.4 mph 20.7 mph N/A   Scattered Clouds
9:30 AM 70.0 °F 61.0 °F 73% 30.15 in 10.0 mi SSW 13.8 mph 19.6 mph N/A   Mostly Cloudy
9:56 AM 71.1 °F 62.1 °F 73% 30.13 in 10.0 mi South 11.5 mph 18.4 mph N/A   Mostly Cloudy
10:05 AM 72.0 °F 62.1 °F 71% 30.14 in 10.0 mi South 10.4 mph 19.6 mph N/A   Scattered Clouds
10:56 AM 75.0 °F 62.1 °F 64% 30.12 in 10.0 mi South 10.4 mph 17.3 mph N/A   Partly Cloudy
11:56 AM 75.0 °F 62.1 °F 64% 30.10 in 10.0 mi SSW 10.4 mph 18.4 mph N/A   Mostly Cloudy
12:56 PM 75.9 °F 63.0 °F 64% 30.06 in 10.0 mi South 11.5 mph 18.4 mph N/A   Scattered Clouds
1:56 PM 75.9 °F 63.0 °F 64% 30.04 in 10.0 mi South 10.4 mph 21.9 mph N/A   Scattered Clouds
2:22 PM 73.9 °F 63.0 °F 68% 30.05 in 8.0 mi SSW 17.3 mph 26.5 mph 0.00 in Rain Light Rain
2:56 PM 69.1 °F 66.0 °F 90% 30.05 in 10.0 mi SW 8.1 mph 16.1 mph 0.01 in   Mostly Cloudy
3:12 PM 69.1 °F 66.0 °F 90% 30.05 in 10.0 mi SSW 8.1 mph - N/A   Partly Cloudy
3:56 PM 70.0 °F 66.0 °F 87% 30.03 in 10.0 mi SSW 4.6 mph - 0.00 in   Scattered Clouds
4:09 PM 71.1 °F 66.0 °F 84% 30.04 in 10.0 mi SSW 8.1 mph - N/A   Mostly Cloudy
4:18 PM 71.1 °F 66.0 °F 84% 30.03 in 10.0 mi SSW 8.1 mph - N/A   Scattered Clouds
4:56 PM 70.0 °F 66.0 °F 87% 30.00 in 10.0 mi SSW 11.5 mph 18.4 mph N/A   Partly Cloudy
5:05 PM 70.0 °F 66.0 °F 87% 30.01 in 10.0 mi South 8.1 mph - N/A   Mostly Cloudy
5:13 PM 70.0 °F 66.0 °F 87% 30.00 in 10.0 mi South 8.1 mph - N/A   Scattered Clouds
5:30 PM 70.0 °F 66.0 °F 87% 30.00 in 10.0 mi South 10.4 mph 17.3 mph N/A   Partly Cloudy
5:56 PM 70.0 °F 66.0 °F 87% 30.01 in 10.0 mi SSW 8.1 mph - N/A   Clear
6:47 PM 69.1 °F 66.0 °F 90% 30.02 in 10.0 mi SSW 10.4 mph - N/A   Mostly Cloudy
6:56 PM 69.1 °F 66.0 °F 90% 30.01 in 10.0 mi SSW 11.5 mph 20.7 mph N/A   Mostly Cloudy
7:21 PM 70.0 °F 66.0 °F 87% 30.02 in 10.0 mi SSW 8.1 mph 18.4 mph N/A   Overcast
7:56 PM 69.1 °F 66.0 °F 90% 30.01 in 10.0 mi SSW 11.5 mph 18.4 mph N/A   Mostly Cloudy
8:56 PM 69.1 °F 66.0 °F 90% 30.00 in 10.0 mi SSW 10.4 mph 17.3 mph N/A   Overcast
9:56 PM 69.1 °F 66.0 °F 90% 30.00 in 10.0 mi SSW 11.5 mph 17.3 mph N/A   Overcast
10:56 PM 69.1 °F 66.0 °F 90% 29.99 in 10.0 mi SSW 11.5 mph - N/A   Overcast
11:56 PM 69.1 °F 66.0 °F 90% 29.97 in 10.0 mi SSW 10.4 mph - N/A   Overcast